{"data":{"norad_id":53975,"intl_designator":"2022-125M","name":"STARLINK-5137","alt_names":[],"object_type":"PAYLOAD","status":"ACTIVE","operator":null,"country":"US","launch_date":"2022-10-05","launch_site_code":"AFWTR","launch_vehicle":null,"mission":null,"orbit_class":"UNKNOWN","rcs_meters":null,"size_class":null,"mass_kg":null,"dimensions":null,"purposes":["comms"],"wikipedia_slug":null,"has_3d_model":false,"image_url":null,"decayed_at":null,"tle_current":{"epoch":"2026-05-24T23:11:16.098720Z","epoch_age_seconds":74177,"freshness":"FRESH","line1":"1 53975U 22125M   26144.96615855 -.00001035  00000+0 -46961-4 0  9993","line2":"2 53975  53.2120 236.2778 0000794  80.4326 279.6756 15.08839631200910","mean_motion":15.08839631,"eccentricity":7.94e-5,"inclination_deg":53.212,"raan_deg":236.2778,"arg_perigee_deg":80.4326,"mean_anomaly_deg":279.6756,"bstar":-4.6961e-5,"rev_number":20091,"period_min":95.437578017859,"perigee_km":539.19523705728,"apogee_km":540.29379664215,"semimajor_km":6917.8815168497,"source":"CELESTRAK","updated_at":"2026-05-25T13:38:17.618744Z"}}}